Home   Weather   Saint-Georges   Past weeks
Flag for Canada

Past Weather in Saint-Georges, Quebec, Canada — Yesterday and Last 2 Weeks

Now
36 °F

Chilly.


Feels Like: 30 °F
Forecast: 40 / 26 °F
Wind: 8 mph from Southeast

Location: Beauceville

Current Time: Apr 9, 2020 at 10:43:56 am

Latest Report: Apr 9, 2020 at 10:00 am


Visibility: N/A

Pressure: 29.42 "Hg

Humidity: 49%

Dew Point: 19 °F

Location of Saint-GeorgesLocation

Past Weather in Saint-Georges — Graph

°F

Saint-Georges Temperature Yesterday

Maximum temperature yesterday: 43 °F (at 3:00 pm)
Minimum temperature yesterday: 21 °F (at 6:00 am)
Average temperature yesterday: 33 °F

High & Low Weather Summary for the Past Weeks

 TemperatureHumidityPressure
High53 °F (Apr 5, 2:00 pm)100% (Mar 29, 7:00 pm)30.25 "Hg (Mar 29, 7:00 pm)
Low19 °F (Mar 25, 8:00 am)21% (Mar 28, 3:00 pm)29.49 "Hg (Apr 9, 8:00 am)
Average36 °F68%29.93 "Hg
* Reported Mar 25 8:00 am — Apr 9 8:00 am, Saint-Georges. Weather by CustomWeather, © 2020

Note: Actual official high and low records may vary slightly from our data, if they occured in-between our weather recording intervals... More about our weather records

Saint-Georges Weather History for the Previous 24 Hours

Scroll right to see more
 ConditionsComfort  
Time TempWeatherWind HumidityBarometerVisibility
8:00 am
Thu, Apr 9
31 °FChilly.3 mph54%29.49 "HgN/A
7:00 am31 °FChilly.3 mph54%29.52 "HgN/A
6:00 am31 °FChilly.5 mph49%29.52 "HgN/A
5:00 am29 °FChilly.1 mph54%29.52 "HgN/A
4:00 am30 °FChilly.2 mph52%29.53 "HgN/A
3:00 am30 °FChilly.No wind57%29.57 "HgN/A
2:00 am31 °FChilly.2 mph49%29.59 "HgN/A
1:00 am31 °FChilly.2 mph50%29.62 "HgN/A
12:00 am32 °FChilly.1 mph56%29.63 "HgN/A
11:00 pm
Wed, Apr 8
32 °FChilly.1 mph64%29.65 "HgN/A
10:00 pm31 °FChilly.1 mph67%29.65 "HgN/A
9:00 pm31 °FChilly.1 mph63%29.63 "HgN/A
8:00 pm35 °FChilly.3 mph52%29.63 "HgN/A
7:00 pm38 °FChilly.5 mph44%29.63 "HgN/A
6:00 pm40 °FQuite cool.5 mph36%29.63 "HgN/A
5:00 pm42 °FQuite cool.5 mph33%29.62 "HgN/A
4:00 pm42 °FQuite cool.6 mph36%29.61 "HgN/A
3:00 pm43 °FQuite cool.6 mph38%29.61 "HgN/A
2:00 pm42 °FQuite cool.8 mph34%29.61 "HgN/A
1:00 pm43 °FQuite cool.6 mph33%29.61 "HgN/A
12:00 pm40 °FQuite cool.6 mph30%29.63 "HgN/A
11:00 am38 °FChilly.2 mph42%29.65 "HgN/A
10:00 am37 °FChilly.2 mph39%29.66 "HgN/A
Weather by CustomWeather, © 2020

See weather overview

Advertising